Wetterdaten: aktuell Montag, 23.09.2019 02:50
Datum Zeit Temp. I. Temp. 5cm Temp. 2m Feuchte I. Feuchte 2m Luftdruck Regen Wind Richtung Richtung Taupunkt Windchill Windben
23.09.2019 02:50 21,4 C 9,1 C 8,7 C 53 % 72 % 1011,0 hPa 0,0 l/m 0,2 km/h (0 Bft) NW 315 3,9 C 8,7 C 3,4 km/h (1 Bft)
23.09.2019 02:48 21,4 C 9,1 C 8,7 C 53 % 72 % 1011,0 hPa 0,0 l/m 0,0 km/h (0 Bft) NW 315 3,9 C 8,7 C 0,0 km/h (0 Bft)
23.09.2019 02:46 21,4 C 9,1 C 8,7 C 53 % 72 % 1011,0 hPa 0,0 l/m 0,0 km/h (0 Bft) NW 315 3,9 C 8,7 C 0,0 km/h (0 Bft)
23.09.2019 02:44 21,4 C 9,0 C 8,7 C 53 % 72 % 1011,0 hPa 0,0 l/m 0,0 km/h (0 Bft) NW 315 3,9 C 8,7 C 0,0 km/h (0 Bft)
23.09.2019 02:42 21,4 C 9,1 C 8,7 C 53 % 72 % 1011,0 hPa 0,0 l/m 0,0 km/h (0 Bft) NW 315 3,9 C 8,7 C 0,0 km/h (0 Bft)
23.09.2019 02:40 21,4 C 9,1 C 8,8 C 53 % 72 % 1010,8 hPa 0,0 l/m 0,0 km/h (0 Bft) NW 315 4,0 C 8,8 C 0,0 km/h (0 Bft)
23.09.2019 02:38 21,4 C 9,1 C 8,8 C 53 % 72 % 1010,8 hPa 0,0 l/m 0,0 km/h (0 Bft) NW 315 4,0 C 8,8 C 0,0 km/h (0 Bft)
23.09.2019 02:36 21,4 C 9,1 C 8,8 C 53 % 72 % 1010,8 hPa 0,0 l/m 0,0 km/h (0 Bft) NW 315 4,0 C 8,8 C 0,0 km/h (0 Bft)
23.09.2019 02:34 21,4 C 9,1 C 8,8 C 53 % 72 % 1010,8 hPa 0,0 l/m 0,0 km/h (0 Bft) NW 315 4,0 C 8,8 C 0,0 km/h (0 Bft)
23.09.2019 02:32 21,4 C 9,3 C 9,0 C 53 % 72 % 1010,8 hPa 0,0 l/m 0,0 km/h (0 Bft) NW 315 4,2 C 9,0 C 0,0 km/h (0 Bft)
23.09.2019 02:30 21,4 C 9,3 C 9,2 C 53 % 72 % 1010,8 hPa 0,0 l/m 0,0 km/h (0 Bft) NW 315 4,4 C 9,2 C 0,0 km/h (0 Bft)
23.09.2019 02:28 21,4 C 9,4 C 9,3 C 53 % 71 % 1010,8 hPa 0,0 l/m 0,2 km/h (0 Bft) NW 315 4,3 C 9,3 C 0,0 km/h (0 Bft)
23.09.2019 02:26 21,4 C 9,5 C 9,4 C 53 % 71 % 1010,8 hPa 0,0 l/m 0,3 km/h (0 Bft) NW 315 4,4 C 9,4 C 0,0 km/h (0 Bft)
23.09.2019 02:24 21,4 C 9,6 C 9,4 C 53 % 71 % 1010,8 hPa 0,0 l/m 0,3 km/h (0 Bft) NW 315 4,4 C 9,4 C 0,0 km/h (0 Bft)
23.09.2019 02:22 21,4 C 9,8 C 9,5 C 53 % 71 % 1010,8 hPa 0,0 l/m 0,3 km/h (0 Bft) NW 315 4,5 C 9,5 C 0,0 km/h (0 Bft)
23.09.2019 02:20 21,4 C 9,9 C 9,5 C 53 % 71 % 1010,9 hPa 0,0 l/m 0,5 km/h (0 Bft) NW 315 4,5 C 9,5 C 0,0 km/h (0 Bft)
23.09.2019 02:18 21,4 C 9,9 C 9,6 C 54 % 71 % 1010,9 hPa 0,0 l/m 0,5 km/h (0 Bft) NW 315 4,6 C 9,6 C 2,7 km/h (1 Bft)
23.09.2019 02:16 21,4 C 9,9 C 9,6 C 54 % 71 % 1010,9 hPa 0,0 l/m 0,2 km/h (0 Bft) NW 315 4,6 C 9,6 C 4,1 km/h (1 Bft)
23.09.2019 02:14 21,4 C 10,0 C 9,7 C 54 % 71 % 1010,9 hPa 0,0 l/m 0,2 km/h (0 Bft) NW 315 4,7 C 9,7 C 0,0 km/h (0 Bft)
23.09.2019 02:12 21,4 C 10,0 C 9,7 C 54 % 71 % 1010,9 hPa 0,0 l/m 0,2 km/h (0 Bft) NW 315 4,7 C 9,7 C 0,0 km/h (0 Bft)
23.09.2019 02:10 21,4 C 10,1 C 9,7 C 54 % 71 % 1010,9 hPa 0,0 l/m 0,2 km/h (0 Bft) NW 315 4,7 C 9,7 C 0,0 km/h (0 Bft)
23.09.2019 02:08 21,4 C 10,2 C 9,7 C 54 % 71 % 1010,9 hPa 0,0 l/m 0,2 km/h (0 Bft) NW 315 4,7 C 9,7 C 0,0 km/h (0 Bft)
23.09.2019 02:06 21,4 C 10,2 C 9,7 C 54 % 71 % 1010,9 hPa 0,0 l/m 0,0 km/h (0 Bft) NW 315 4,7 C 9,7 C 0,0 km/h (0 Bft)
23.09.2019 02:04 21,4 C 10,3 C 9,7 C 54 % 71 % 1010,9 hPa 0,0 l/m 0,0 km/h (0 Bft) NW 315 4,7 C 9,7 C 0,0 km/h (0 Bft)
23.09.2019 02:02 21,4 C 10,3 C 9,8 C 54 % 71 % 1010,9 hPa 0,0 l/m 0,0 km/h (0 Bft) NW 315 4,8 C 9,8 C 0,0 km/h (0 Bft)
23.09.2019 02:00 21,4 C 10,4 C 9,8 C 54 % 71 % 1011,0 hPa 0,0 l/m 0,0 km/h (0 Bft) NW 315 4,8 C 9,8 C 0,0 km/h (0 Bft)
23.09.2019 01:58 21,4 C 10,4 C 9,8 C 54 % 71 % 1011,0 hPa 0,0 l/m 0,0 km/h (0 Bft) NW 315 4,8 C 9,8 C 0,0 km/h (0 Bft)
23.09.2019 01:56 21,4 C 10,3 C 9,7 C 54 % 71 % 1011,0 hPa 0,0 l/m 0,0 km/h (0 Bft) NW 315 4,7 C 9,7 C 0,0 km/h (0 Bft)
23.09.2019 01:54 21,4 C 10,3 C 9,7 C 54 % 71 % 1011,0 hPa 0,0 l/m 0,0 km/h (0 Bft) NW 315 4,7 C 9,7 C 0,0 km/h (0 Bft)
23.09.2019 01:52 21,4 C 10,3 C 9,7 C 54 % 71 % 1011,0 hPa 0,0 l/m 0,0 km/h (0 Bft) NW 315 4,7 C 9,7 C 0,0 km/h (0 Bft)
23.09.2019 01:50 21,4 C 10,2 C 9,7 C 54 % 70 % 1011,0 hPa 0,0 l/m 0,0 km/h (0 Bft) NW 315 4,5 C 9,7 C 0,0 km/h (0 Bft)
23.09.2019 01:48 21,4 C 10,1 C 9,7 C 54 % 70 % 1011,0 hPa 0,0 l/m 0,0 km/h (0 Bft) NW 315 4,5 C 9,7 C 0,0 km/h (0 Bft)
23.09.2019 01:46 21,4 C 10,0 C 9,7 C 54 % 70 % 1011,0 hPa 0,0 l/m 0,0 km/h (0 Bft) NW 315 4,5 C 9,7 C 0,0 km/h (0 Bft)
23.09.2019 01:44 21,4 C 10,0 C 9,7 C 54 % 70 % 1011,0 hPa 0,0 l/m 0,2 km/h (0 Bft) NW 315 4,5 C 9,7 C 0,0 km/h (0 Bft)
23.09.2019 01:42 21,4 C 9,9 C 9,7 C 54 % 70 % 1011,0 hPa 0,0 l/m 0,2 km/h (0 Bft) NW 315 4,5 C 9,7 C 0,0 km/h (0 Bft)
23.09.2019 01:40 21,4 C 9,8 C 9,8 C 54 % 70 % 1011,0 hPa 0,0 l/m 0,2 km/h (0 Bft) NW 315 4,6 C 9,8 C 0,0 km/h (0 Bft)
23.09.2019 01:38 21,4 C 9,8 C 9,8 C 54 % 70 % 1011,0 hPa 0,0 l/m 0,2 km/h (0 Bft) NW 315 4,6 C 9,8 C 0,0 km/h (0 Bft)
23.09.2019 01:36 21,4 C 9,8 C 9,9 C 54 % 70 % 1011,0 hPa 0,0 l/m 0,2 km/h (0 Bft) NW 315 4,7 C 9,9 C 0,0 km/h (0 Bft)
23.09.2019 01:34 21,4 C 9,8 C 9,9 C 54 % 70 % 1011,0 hPa 0,0 l/m 0,0 km/h (0 Bft) NW 315 4,7 C 9,9 C 0,0 km/h (0 Bft)
23.09.2019 01:32 21,4 C 9,8 C 9,9 C 54 % 70 % 1011,0 hPa 0,0 l/m 0,0 km/h (0 Bft) NW 315 4,7 C 9,9 C 0,0 km/h (0 Bft)
23.09.2019 01:30 21,4 C 9,9 C 10,0 C 54 % 70 % 1011,0 hPa 0,0 l/m 0,0 km/h (0 Bft) NW 315 4,8 C 10,0 C 0,0 km/h (0 Bft)
23.09.2019 01:28 21,4 C 9,9 C 10,0 C 54 % 70 % 1011,0 hPa 0,0 l/m 0,0 km/h (0 Bft) NW 315 4,8 C 10,0 C 0,0 km/h (0 Bft)
23.09.2019 01:26 21,4 C 9,9 C 10,0 C 54 % 69 % 1011,0 hPa 0,0 l/m 0,0 km/h (0 Bft) NW 315 4,6 C 10,0 C 0,0 km/h (0 Bft)
23.09.2019 01:24 21,4 C 9,9 C 10,0 C 54 % 69 % 1011,0 hPa 0,0 l/m 0,0 km/h (0 Bft) NW 315 4,6 C 10,0 C 0,0 km/h (0 Bft)
23.09.2019 01:22 21,4 C 10,0 C 10,1 C 54 % 69 % 1011,0 hPa 0,0 l/m 0,0 km/h (0 Bft) NW 315 4,7 C 10,1 C 0,0 km/h (0 Bft)
23.09.2019 01:20 21,4 C 10,0 C 10,2 C 54 % 69 % 1011,0 hPa 0,0 l/m 0,0 km/h (0 Bft) NW 315 4,8 C 10,2 C 0,0 km/h (0 Bft)
23.09.2019 01:18 21,4 C 10,0 C 10,3 C 54 % 69 % 1011,0 hPa 0,0 l/m 0,0 km/h (0 Bft) NW 315 4,9 C 10,3 C 0,0 km/h (0 Bft)
23.09.2019 01:16 21,4 C 10,0 C 10,3 C 54 % 69 % 1011,0 hPa 0,0 l/m 0,0 km/h (0 Bft) NW 315 4,9 C 10,3 C 0,0 km/h (0 Bft)
23.09.2019 01:14 21,4 C 10,1 C 10,4 C 54 % 69 % 1011,0 hPa 0,0 l/m 0,0 km/h (0 Bft) NW 315 5,0 C 10,4 C 0,0 km/h (0 Bft)
23.09.2019 01:12 21,4 C 10,1 C 10,5 C 54 % 69 % 1011,0 hPa 0,0 l/m 0,0 km/h (0 Bft) NW 315 5,1 C 10,5 C 0,0 km/h (0 Bft)
23.09.2019 01:10 21,4 C 10,3 C 10,5 C 54 % 69 % 1011,0 hPa 0,0 l/m 0,0 km/h (0 Bft) NW 315 5,1 C 10,5 C 0,0 km/h (0 Bft)
23.09.2019 01:08 21,4 C 10,5 C 10,6 C 54 % 69 % 1011,0 hPa 0,0 l/m 0,0 km/h (0 Bft) NW 315 5,2 C 10,6 C 0,0 km/h (0 Bft)
23.09.2019 01:06 21,4 C 10,5 C 10,7 C 54 % 69 % 1011,0 hPa 0,0 l/m 0,0 km/h (0 Bft) NW 315 5,2 C 10,7 C 0,0 km/h (0 Bft)
23.09.2019 01:04 21,4 C 10,5 C 10,7 C 54 % 69 % 1011,0 hPa 0,0 l/m 0,0 km/h (0 Bft) NW 315 5,2 C 10,7 C 0,0 km/h (0 Bft)
23.09.2019 01:02 21,4 C 10,5 C 10,9 C 54 % 69 % 1011,0 hPa 0,0 l/m 0,0 km/h (0 Bft) NW 315 5,4 C 10,9 C 0,0 km/h (0 Bft)
23.09.2019 01:00 21,4 C 10,6 C 11,0 C 54 % 69 % 1010,9 hPa 0,0 l/m 0,0 km/h (0 Bft) NW 315 5,5 C 11,0 C 0,0 km/h (0 Bft)
23.09.2019 00:58 21,4 C 10,8 C 11,0 C 54 % 69 % 1010,9 hPa 0,0 l/m 0,2 km/h (0 Bft) NW 315 5,5 C 11,0 C 0,0 km/h (0 Bft)
23.09.2019 00:56 21,4 C 10,9 C 11,1 C 54 % 69 % 1010,9 hPa 0,0 l/m 0,2 km/h (0 Bft) NW 315 5,6 C 11,1 C 0,0 km/h (0 Bft)
23.09.2019 00:54 21,4 C 10,9 C 11,1 C 54 % 69 % 1010,9 hPa 0,0 l/m 0,2 km/h (0 Bft) NW 315 5,6 C 11,1 C 0,0 km/h (0 Bft)
23.09.2019 00:52 21,4 C 11,0 C 11,3 C 54 % 69 % 1010,9 hPa 0,0 l/m 0,2 km/h (0 Bft) NW 315 5,8 C 11,3 C 0,0 km/h (0 Bft)
23.09.2019 00:50 21,4 C 11,0 C 11,3 C 54 % 69 % 1010,9 hPa 0,0 l/m 0,2 km/h (0 Bft) NW 315 5,8 C 11,3 C 0,0 km/h (0 Bft)
23.09.2019 00:48 21,4 C 11,1 C 11,1 C 54 % 69 % 1010,9 hPa 0,0 l/m 0,0 km/h (0 Bft) NW 315 5,6 C 11,1 C 0,0 km/h (0 Bft)
23.09.2019 00:46 21,4 C 11,2 C 11,4 C 54 % 69 % 1010,9 hPa 0,0 l/m 0,0 km/h (0 Bft) NW 315 5,9 C 11,4 C 0,0 km/h (0 Bft)
23.09.2019 00:44 21,4 C 11,4 C 11,4 C 54 % 69 % 1010,9 hPa 0,0 l/m 0,3 km/h (0 Bft) NW 315 5,9 C 11,4 C 0,0 km/h (0 Bft)
23.09.2019 00:42 21,4 C 11,6 C 11,4 C 54 % 69 % 1010,9 hPa 0,0 l/m 0,6 km/h (0 Bft) NW 315 5,9 C 11,4 C 0,0 km/h (0 Bft)
23.09.2019 00:40 21,4 C 11,7 C 11,5 C 54 % 69 % 1010,9 hPa 0,0 l/m 1,0 km/h (0 Bft) NW 315 6,0 C 11,5 C 5,6 km/h (1 Bft)
23.09.2019 00:38 21,4 C 11,9 C 11,7 C 54 % 69 % 1010,9 hPa 0,0 l/m 1,3 km/h (1 Bft) NW 315 6,2 C 11,7 C 0,0 km/h (0 Bft)
23.09.2019 00:36 21,4 C 12,0 C 11,7 C 54 % 69 % 1010,9 hPa 0,0 l/m 1,4 km/h (1 Bft) NW 315 6,2 C 11,7 C 0,0 km/h (0 Bft)
23.09.2019 00:34 21,4 C 12,0 C 11,7 C 54 % 68 % 1010,9 hPa 0,0 l/m 1,4 km/h (1 Bft) NW 315 6,0 C 11,7 C 3,4 km/h (1 Bft)
23.09.2019 00:32 21,4 C 12,1 C 11,7 C 54 % 68 % 1010,9 hPa 0,0 l/m 1,3 km/h (1 Bft) NW 315 6,0 C 11,7 C 4,3 km/h (1 Bft)
23.09.2019 00:30 21,4 C 12,2 C 11,7 C 54 % 68 % 1010,9 hPa 0,0 l/m 1,0 km/h (0 Bft) NW 315 6,0 C 11,7 C 5,6 km/h (1 Bft)
23.09.2019 00:28 21,4 C 12,2 C 11,7 C 54 % 68 % 1010,9 hPa 0,0 l/m 0,6 km/h (0 Bft) NW 315 6,0 C 11,7 C 4,1 km/h (1 Bft)
23.09.2019 00:26 21,4 C 12,2 C 11,7 C 54 % 68 % 1010,9 hPa 0,0 l/m 0,5 km/h (0 Bft) NW 315 6,0 C 11,7 C 0,0 km/h (0 Bft)
23.09.2019 00:24 21,4 C 12,1 C 11,7 C 54 % 68 % 1010,9 hPa 0,0 l/m 0,5 km/h (0 Bft) NW 315 6,0 C 11,7 C 3,1 km/h (1 Bft)
23.09.2019 00:22 21,4 C 11,9 C 11,7 C 54 % 68 % 1010,9 hPa 0,0 l/m 0,0 km/h (0 Bft) NO 45 6,0 C 11,7 C 0,0 km/h (0 Bft)
23.09.2019 00:20 21,4 C 11,8 C 11,7 C 54 % 68 % 1011,1 hPa 0,0 l/m 0,2 km/h (0 Bft) NO 45 6,0 C 11,7 C 0,0 km/h (0 Bft)
23.09.2019 00:18 21,4 C 11,8 C 11,8 C 54 % 68 % 1011,1 hPa 0,0 l/m 0,2 km/h (0 Bft) NO 45 6,1 C 11,8 C 0,0 km/h (0 Bft)
23.09.2019 00:16 21,4 C 11,9 C 11,8 C 54 % 68 % 1011,1 hPa 0,0 l/m 0,3 km/h (0 Bft) NO 45 6,1 C 11,8 C 2,9 km/h (1 Bft)
23.09.2019 00:14 21,4 C 12,0 C 11,9 C 54 % 68 % 1011,1 hPa 0,0 l/m 0,3 km/h (0 Bft) NO 45 6,2 C 11,9 C 0,0 km/h (0 Bft)
23.09.2019 00:12 21,4 C 12,1 C 11,9 C 54 % 68 % 1011,1 hPa 0,0 l/m 0,3 km/h (0 Bft) NO 45 6,2 C 11,9 C 0,0 km/h (0 Bft)
23.09.2019 00:10 21,4 C 12,2 C 12,0 C 54 % 68 % 1011,1 hPa 0,0 l/m 0,3 km/h (0 Bft) NO 45 6,3 C 12,0 C 0,0 km/h (0 Bft)
23.09.2019 00:08 21,4 C 12,2 C 12,1 C 54 % 68 % 1011,1 hPa 0,0 l/m 0,3 km/h (0 Bft) NO 45 6,4 C 12,1 C 0,0 km/h (0 Bft)
23.09.2019 00:06 21,5 C 12,2 C 12,2 C 54 % 68 % 1011,1 hPa 0,0 l/m 0,2 km/h (0 Bft) NO 45 6,5 C 12,2 C 4,1 km/h (1 Bft)
23.09.2019 00:04 21,5 C 12,4 C 12,3 C 54 % 68 % 1011,1 hPa 0,0 l/m 1,0 km/h (0 Bft) NW 315 6,6 C 12,3 C 0,0 km/h (0 Bft)
23.09.2019 00:02 21,5 C 12,4 C 12,3 C 54 % 68 % 1011,1 hPa 0,0 l/m 1,0 km/h (0 Bft) NW 315 6,6 C 12,3 C 0,0 km/h (0 Bft)
23.09.2019 00:00 21,4 C 12,4 C 12,3 C 54 % 68 % 1011,1 hPa 0,0 l/m 1,1 km/h (1 Bft) NW 315 6,6 C 12,3 C 0,0 km/h (0 Bft)
_ Min-Zeit 00:00 02:44 02:42 02:20 00:00 02:22 - 00:22 - - 02:42 02:42 00:00
Minimum _ 21,4 C 9,0 C 8,7 C 53 % 68 % 1010,8 hPa - 0,0 km/h (0 Bft) - - 3,9 C 8,7 C 0,0 km/h (0 Bft)
_ Max-Zeit 00:02 00:00 00:00 00:00 02:30 00:00 00:00 00:34 - - 00:00 00:00 00:30
Maximum _ 21,5 C 12,4 C 12,3 C 54 % 72 % 1011,1 hPa 0,0 l/m 1,4 km/h
NW (1 Bft)
- - 6,6 C 12,3 C 5,6 km/h
NW (1 Bft)
Durchschnitt _ 21,4 C 10,5 C 10,4 C 54 % 70 % 1011,0 hPa #0,0 l/m 0,2 km/h (0 Bft) NW - 5,1 C 10,4 C 0,5 km/h (0 Bft)